TimeCDT,TemperatureF,Dew PointF,Humidity,Sea Level PressureIn,VisibilityMPH,Wind Direction,Wind SpeedMPH,Gust SpeedMPH,PrecipitationIn,Events,Conditions,WindDirDegrees,DateUTC
12:53 AM,75.0,71.1,87,29.87,10.0,SSE,4.6,-,N/A,,Clear,150,2013-09-01 05:53:00
1:53 AM,73.9,71.1,91,29.86,9.0,Calm,Calm,-,N/A,,Clear,0,2013-09-01 06:53:00
2:53 AM,75.9,72.0,87,29.87,8.0,Calm,Calm,-,N/A,,Overcast,0,2013-09-01 07:53:00
3:53 AM,77.0,73.0,88,29.86,8.0,South,5.8,-,N/A,Thunderstorm,Thunderstorm,180,2013-09-01 08:53:00
4:09 AM,75.2,73.4,94,29.88,7.0,South,3.5,-,N/A,,Overcast,170,2013-09-01 09:09:00
4:53 AM,75.0,72.0,90,29.86,6.0,Calm,Calm,-,N/A,,Clear,0,2013-09-01 09:53:00
5:53 AM,73.9,72.0,93,29.87,5.0,South,3.5,-,N/A,,Clear,170,2013-09-01 10:53:00
6:53 AM,75.0,73.0,94,29.89,4.0,SSE,3.5,-,N/A,,Mostly Cloudy,150,2013-09-01 11:53:00
7:53 AM,77.0,73.0,88,29.90,5.0,South,3.5,-,N/A,,Scattered Clouds,190,2013-09-01 12:53:00
8:53 AM,81.0,73.9,79,29.91,6.0,Calm,Calm,-,N/A,,Haze,0,2013-09-01 13:53:00
9:53 AM,82.9,73.9,74,29.94,6.0,North,5.8,-,N/A,,Haze,350,2013-09-01 14:53:00
10:53 AM,84.9,72.0,65,29.94,9.0,North,8.1,-,N/A,,Mostly Cloudy,350,2013-09-01 15:53:00
11:00 AM,84.2,71.6,66,29.96,9.0,North,8.1,-,N/A,,Partly Cloudy,350,2013-09-01 16:00:00
11:53 AM,86.0,69.1,57,29.93,10.0,Variable,3.5,-,N/A,,Partly Cloudy,0,2013-09-01 16:53:00
12:53 PM,89.1,68.0,50,29.89,10.0,WNW,10.4,20.7,N/A,,Partly Cloudy,290,2013-09-01 17:53:00
1:53 PM,88.0,68.0,51,29.88,10.0,WNW,10.4,21.9,N/A,,Scattered Clouds,290,2013-09-01 18:53:00
2:53 PM,90.0,68.0,48,29.87,10.0,WSW,11.5,-,N/A,,Scattered Clouds,250,2013-09-01 19:53:00
3:53 PM,90.0,70.0,52,29.85,10.0,WNW,6.9,-,N/A,,Scattered Clouds,300,2013-09-01 20:53:00
4:53 PM,87.1,68.0,53,29.86,10.0,NNW,6.9,-,N/A,,Scattered Clouds,330,2013-09-01 21:53:00
5:53 PM,87.1,69.1,55,29.85,10.0,NNW,3.5,-,N/A,,Scattered Clouds,340,2013-09-01 22:53:00
6:53 PM,81.0,66.0,60,29.86,10.0,NW,3.5,-,N/A,,Scattered Clouds,320,2013-09-01 23:53:00
7:53 PM,78.1,66.9,68,29.87,10.0,North,5.8,-,N/A,,Scattered Clouds,350,2013-09-02 00:53:00
8:53 PM,75.9,68.0,76,29.89,10.0,Calm,Calm,-,N/A,,Scattered Clouds,0,2013-09-02 01:53:00
9:53 PM,75.9,68.0,76,29.90,10.0,Calm,Calm,-,N/A,,Mostly Cloudy,0,2013-09-02 02:53:00
10:53 PM,75.9,69.1,79,29.89,10.0,East,3.5,-,N/A,,Scattered Clouds,100,2013-09-02 03:53:00
11:53 PM,73.9,70.0,87,29.89,10.0,Calm,Calm,-,N/A,,Scattered Clouds,0,2013-09-02 04:53:00